This is the latest recevied weather packets stored in our database for station/object EA1FBN. If no packets are shown the sender has not sent any weather packets the latest 10 day(s).
| Time | Temp. | Humidity | Pressure | Rain* | Wind** | Luminosity | Snow |
|---|---|---|---|---|---|---|---|
| 1777539515 | 11.11° C | 71% | 1017.9 hPa | 0 mm | - | - | - |
| 1777539215 | 11.11° C | 69% | 1017.9 hPa | 0 mm | - | - | - |
| 1777538915 | 11.11° C | 69% | 1017.8 hPa | 0 mm | - | - | - |
| 1777538615 | 11.11° C | 69% | 1017.7 hPa | 0 mm | - | - | - |
| 1777538315 | 11.11° C | 67% | 1017.6 hPa | 0 mm | - | - | - |
| 1777538015 | 11.11° C | 67% | 1017.6 hPa | 0 mm | - | - | - |
| 1777537715 | 11.11° C | 65% | 1017.5 hPa | 0 mm | - | - | - |
| 1777537415 | 11.11° C | 63% | 1017.5 hPa | 0 mm | - | - | - |
| 1777537115 | 11.11° C | 61% | 1017.5 hPa | 0 mm | - | - | - |
| 1777536815 | 11.11° C | 55% | 1017.4 hPa | 0 mm | - | - | - |
| 1777536515 | 10.56° C | 55% | 1017.5 hPa | 0 mm | - | - | - |
| 1777536215 | 10.56° C | 55% | 1017.4 hPa | 0 mm | - | - | - |
| 1777535915 | 10.56° C | 54% | 1017.4 hPa | 0 mm | - | - | - |
| 1777535615 | 10.56° C | 55% | 1017.3 hPa | 0 mm | - | - | - |
| 1777535315 | 10.56° C | 56% | 1017.3 hPa | 0 mm | - | - | - |
| 1777535015 | 10.56° C | 56% | 1017.2 hPa | 0 mm | - | - | - |
| 1777534715 | 10.56° C | 57% | 1017.3 hPa | 0 mm | - | - | - |
| 1777534415 | 10.56° C | 57% | 1017.2 hPa | 0 mm | - | - | - |
| 1777534115 | 10.56° C | 58% | 1017 hPa | 0 mm | - | - | - |
| 1777533815 | 10.56° C | 60% | 1017 hPa | 0 mm | - | - | - |
| 1777533515 | 11.11° C | 62% | 1017 hPa | 0 mm | - | - | - |
| 1777533215 | 11.11° C | 63% | 1016.8 hPa | 0 mm | - | - | - |
| 1777532916 | 11.67° C | 61% | 1016.8 hPa | 0 mm | - | - | - |
| 1777532615 | 11.67° C | 59% | 1016.7 hPa | 0 mm | - | - | - |
| 1777532315 | 11.67° C | 55% | 1016.7 hPa | 0 mm | - | - | - |
* Rain latest hour (hover to see other rain measurements)
** Current wind speed in m/s (hover to see current wind gust speed)